Tracking 34408 objects as of 14-Jun-2026
HD Live streaming from Space Station
objects crossing your sky now

SAKURA 2B (CS-2B)

Track SAKURA 2B (CS-2B) now!
SAKURA 2B (CS-2B) is classified as:


NORAD ID: 14248
Int'l Code: 1983-081A
Perigee: 36,192.7 km
Apogee: 36,223.7 km
Inclination: 11.1 °
Period: 1,457.3 minutes
Semi major axis: 42579 km
RCS: 8.9693 m2 (large)
Launch date: August 5, 1983
Source: Japan (JPN)
Launch site: TANEGASHIMA SPACE CENTER (TNSTA)
Your satellite tracking list
Your tracking list is empty




NASA's NSSDC Master Catalog

Two Line Element Set (TLE):
1 14248U 83081A   26164.92501898 -.00000089  00000-0  00000+0 0  9997
2 14248  11.0970 324.5182 0003635  61.6233 312.9623  0.98811325123652
Source of the keplerian elements: AFSPC